| time (UTC) | temp C | wind direction | speed KPH | gust KPH | rain 1hr cm | rain 24hr cm | rain mn cm | humidity % | barometer mb |
| 20260508100033 | 5 | 107 | 0.0 | 0.0 | 0.00 | 0.03 | 0.00 | 93 | 1015.5 |
| 20260508094532 | 5 | 107 | 0.0 | 0.0 | 0.00 | 0.03 | 0.00 | 93 | 1015.5 |
| 20260508093030 | 5 | 107 | 0.0 | 0.0 | 0.00 | 0.03 | 0.00 | 93 | 1015.3 |
| 20260508091527 | 5 | 107 | 0.0 | 0.0 | 0.00 | 0.03 | 0.00 | 92 | 1015.3 |
| 20260508090043 | 6 | 107 | 0.0 | 0.0 | 0.00 | 0.05 | 0.00 | 92 | 1015.2 |
| 20260508084525 | 6 | 107 | 0.0 | 0.0 | 0.00 | 0.05 | 0.00 | 91 | 1015.2 |
| 20260508083024 | 6 | 107 | 0.0 | 0.0 | 0.00 | 0.05 | 0.00 | 89 | 1015.3 |
| 20260508081524 | 6 | 107 | 0.0 | 0.0 | 0.00 | 0.05 | 0.00 | 90 | 1015.1 |
| 20260508080023 | 6 | 107 | 0.0 | 0.0 | 0.00 | 0.08 | 0.00 | 90 | 1015.2 |
| 20260508074524 | 6 | 107 | 0.0 | 0.0 | 0.00 | 0.08 | 0.00 | 89 | 1015.1 |
| 20260508073019 | 6 | 107 | 0.0 | 0.0 | 0.00 | 0.08 | 0.00 | 89 | 1015.1 |
| 20260508071518 | 6 | 107 | 0.0 | 0.0 | 0.00 | 0.08 | 0.00 | 89 | 1015.2 |
| 20260508070016 | 6 | 107 | 0.0 | 0.0 | 0.00 | 0.08 | 0.00 | 89 | 1015.3 |
| 20260508064514 | 7 | 107 | 0.0 | 0.0 | 0.00 | 0.08 | 0.00 | 88 | 1015.3 |
| 20260508063013 | 7 | 107 | 0.0 | 0.0 | 0.00 | 0.08 | 0.00 | 87 | 1015.2 |
| 20260508061512 | 7 | 107 | 0.0 | 0.0 | 0.00 | 0.08 | 0.00 | 88 | 1015.2 |
| 20260508060013 | 7 | 107 | 0.0 | 0.0 | 0.00 | 0.08 | 0.00 | 88 | 1015.3 |
| 20260508054511 | 7 | 107 | 0.0 | 0.0 | 0.00 | 0.08 | 0.00 | 89 | 1015.4 |
| 20260508053013 | 7 | 107 | 0.0 | 0.0 | 0.00 | 0.08 | 0.00 | 89 | 1015.4 |
| 20260508051510 | 8 | 106 | 0.0 | 0.0 | 0.00 | 0.08 | 0.00 | 89 | 1015.3 |
| 20260508050006 | 7 | 106 | 0.0 | 0.0 | 0.00 | 0.20 | 0.00 | 86 | 1015.5 |
| 20260508044505 | 7 | 106 | 0.0 | 0.0 | 0.00 | 0.20 | 0.00 | 85 | 1015.3 |
| 20260508043100 | 8 | 106 | 0.0 | 0.0 | 0.00 | 0.20 | 0.00 | 84 | 1015.2 |
| 20260508041557 | 8 | 106 | 0.0 | 0.0 | 0.00 | 0.20 | 0.00 | 83 | 1015.1 |
| 20260508040057 | 9 | 106 | 0.0 | 0.0 | 0.00 | 0.20 | 0.20 | 81 | 1014.8 |
| 20260508034554 | 9 | 106 | 0.0 | 0.0 | 0.00 | 0.20 | 0.20 | 81 | 1014.9 |
| 20260508033057 | 9 | 106 | 0.0 | 0.0 | 0.00 | 0.20 | 0.20 | 81 | 1014.8 |
| 20260508031555 | 10 | 106 | 0.0 | 0.0 | 0.00 | 0.20 | 0.20 | 82 | 1014.9 |
| 20260508030054 | 10 | 106 | 0.0 | 0.0 | 0.00 | 0.33 | 0.20 | 80 | 1014.8 |
| 20260508024611 | 10 | 106 | 0.0 | 0.0 | 0.00 | 0.33 | 0.20 | 78 | 1014.6 |
| 20260508023041 | 10 | 143 | 0.0 | 0.0 | 0.00 | 0.33 | 0.20 | 79 | 1014.4 |
| 20260508021543 | 10 | 143 | 0.0 | 0.0 | 0.00 | 0.33 | 0.20 | 78 | 1014.3 |
| 20260508020046 | 11 | 143 | 0.0 | 0.0 | 0.00 | 0.33 | 0.20 | 78 | 1014.3 |
| 20260508014538 | 11 | 165 | 0.0 | 0.0 | 0.00 | 0.33 | 0.20 | 79 | 1013.9 |
| 20260508013034 | 11 | 165 | 0.0 | 0.0 | 0.00 | 0.33 | 0.20 | 79 | 1013.7 |
| 20260508011533 | 11 | 167 | 0.0 | 0.0 | 0.00 | 0.33 | 0.20 | 79 | 1013.5 |
| 20260508010030 | 12 | 168 | 0.0 | 0.0 | 0.00 | 0.33 | 0.20 | 75 | 1013.3 |
| 20260508004539 | 13 | 167 | 0.0 | 0.0 | 0.00 | 0.33 | 0.20 | 72 | 1013.0 |
| 20260508003026 | 13 | 167 | 0.0 | 0.0 | 0.00 | 0.33 | 0.20 | 69 | 1012.9 |
| 20260508001533 | 14 | 168 | 0.0 | 0.0 | 0.00 | 0.33 | 0.20 | 69 | 1012.6 |
| 20260508000024 | 15 | 168 | 0.0 | 0.0 | 0.00 | 0.41 | 0.20 | 65 | 1012.4 |
| 20260507234528 | 15 | 168 | 0.0 | 0.0 | 0.00 | 0.41 | 0.20 | 64 | 1012.2 |
| 20260507233024 | 16 | 129 | 0.0 | 8.0 | 0.00 | 0.41 | 0.20 | 65 | 1012.1 |
| 20260507231524 | 17 | 110 | 0.0 | 0.0 | 0.00 | 0.41 | 0.20 | 63 | 1012.2 |
| 20260507230022 | 17 | 115 | 0.0 | 4.8 | 0.00 | 0.64 | 0.20 | 59 | 1012.3 |
| 20260507224523 | 17 | 139 | 0.0 | 3.2 | 0.00 | 0.64 | 0.20 | 57 | 1012.2 |
| 20260507223022 | 18 | 212 | 0.0 | 3.2 | 0.00 | 0.64 | 0.20 | 54 | 1012.1 |
| 20260507221521 | 18 | 136 | 0.0 | 3.2 | 0.00 | 0.64 | 0.20 | 55 | 1012.1 |
| 20260507220020 | 18 | 179 | 0.0 | 6.4 | 0.00 | 0.71 | 0.20 | 54 | 1012.1 |
| 20260507214519 | 18 | 185 | 0.0 | 3.2 | 0.00 | 0.71 | 0.20 | 58 | 1012.1 |
| 20260507213027 | 18 | 112 | 0.0 | 6.4 | 0.00 | 0.71 | 0.20 | 55 | 1011.9 |
| 20260507211517 | 19 | 167 | 0.0 | 3.2 | 0.00 | 0.71 | 0.20 | 60 | 1011.5 |
| 20260507210015 | 19 | 164 | 1.6 | 6.4 | 0.00 | 0.81 | 0.20 | 55 | 1011.5 |
| 20260507204513 | 20 | 142 | 0.0 | 14.5 | 0.00 | 0.81 | 0.20 | 56 | 1011.5 |
| 20260507203018 | 20 | 130 | 0.0 | 0.0 | 0.00 | 0.81 | 0.20 | 52 | 1011.5 |
| 20260507201509 | 20 | 110 | 0.0 | 3.2 | 0.00 | 0.81 | 0.20 | 55 | 1011.6 |
| 20260507200006 | 19 | 278 | 0.0 | 3.2 | 0.00 | 0.94 | 0.20 | 59 | 1011.8 |
| 20260507194512 | 20 | 112 | 0.0 | 6.4 | 0.00 | 0.94 | 0.20 | 52 | 1011.8 |
| 20260507193002 | 20 | 23 | 1.6 | 8.0 | 0.00 | 0.94 | 0.20 | 56 | 1011.9 |
| 20260507191559 | 18 | 293 | 0.0 | 4.8 | 0.00 | 0.94 | 0.20 | 61 | 1012.0 |
| 20260507184558 | 18 | 167 | 1.6 | 4.8 | 0.00 | 0.94 | 0.20 | 61 | 1012.4 |
| 20260507183058 | 18 | 201 | 0.0 | 6.4 | 0.00 | 0.94 | 0.20 | 59 | 1012.2 |
| 20260507181557 | 18 | 96 | 0.0 | 9.7 | 0.00 | 0.94 | 0.20 | 60 | 1012.2 |
| 20260507180054 | 18 | 105 | 0.0 | 6.4 | 0.00 | 0.94 | 0.20 | 64 | 1012.2 |
| 20260507174558 | 17 | 167 | 1.6 | 8.0 | 0.00 | 0.94 | 0.20 | 68 | 1012.3 |
| 20260507173125 | 17 | 345 | 0.0 | 6.4 | 0.00 | 0.94 | 0.20 | 72 | 1012.8 |
| 20260507171554 | 17 | 141 | 0.0 | 6.4 | 0.00 | 0.94 | 0.20 | 65 | 1012.7 |
| 20260507170051 | 18 | 146 | 0.0 | 4.8 | 0.00 | 0.94 | 0.20 | 66 | 1012.7 |
| 20260507164549 | 17 | 146 | 1.6 | 9.7 | 0.00 | 0.94 | 0.20 | 67 | 1012.8 |
| 20260507163045 | 16 | 342 | 0.0 | 6.4 | 0.00 | 0.94 | 0.20 | 76 | 1012.8 |
| 20260507161548 | 16 | 184 | 0.0 | 8.0 | 0.00 | 0.94 | 0.20 | 78 | 1013.0 |
| 20260507160038 | 15 | 171 | 0.0 | 4.8 | 0.00 | 0.94 | 0.20 | 83 | 1013.0 |
| 20260507154533 | 13 | 148 | 0.0 | 6.4 | 0.00 | 0.94 | 0.20 | 86 | 1012.8 |
| 20260507153033 | 13 | 137 | 0.0 | 0.0 | 0.00 | 0.94 | 0.20 | 89 | 1012.9 |
| 20260507151532 | 12 | 113 | 0.0 | 0.0 | 0.00 | 0.94 | 0.20 | 89 | 1012.8 |
| 20260507150038 | 12 | 79 | 0.0 | 1.6 | 0.00 | 1.09 | 0.20 | 90 | 1012.7 |
| 20260507144531 | 12 | 127 | 0.0 | 0.0 | 0.00 | 1.09 | 0.20 | 90 | 1012.8 |
| 20260507143033 | 12 | 136 | 0.0 | 3.2 | 0.00 | 1.09 | 0.20 | 89 | 1012.9 |
| 20260507141537 | 12 | 224 | 0.0 | 4.8 | 0.00 | 1.09 | 0.20 | 90 | 1012.4 |
| 20260507140026 | 12 | 156 | 0.0 | 3.2 | 0.00 | 1.60 | 0.20 | 90 | 1012.3 |
| 20260507134524 | 12 | 228 | 0.0 | 4.8 | 0.00 | 1.60 | 0.20 | 91 | 1012.3 |
| 20260507133033 | 12 | 68 | 0.0 | 1.6 | 0.00 | 1.60 | 0.20 | 92 | 1012.2 |
| 20260507131527 | 12 | 146 | 0.0 | 0.0 | 0.00 | 1.60 | 0.20 | 93 | 1012.1 |
| 20260507130023 | 12 | 166 | 0.0 | 0.0 | 0.00 | 2.39 | 0.20 | 93 | 1012.0 |
| 20260507124527 | 12 | 120 | 0.0 | 1.6 | 0.00 | 2.39 | 0.20 | 93 | 1012.3 |
| 20260507123028 | 11 | 226 | 0.0 | 0.0 | 0.00 | 2.39 | 0.20 | 94 | 1011.9 |
| 20260507121518 | 11 | 107 | 0.0 | 0.0 | 0.00 | 2.39 | 0.20 | 94 | 1011.8 |
| 20260507120015 | 11 | 117 | 0.0 | 0.0 | 0.00 | 2.67 | 0.20 | 95 | 1011.8 |
| 20260507114515 | 11 | 131 | 0.0 | 0.0 | 0.00 | 2.67 | 0.20 | 95 | 1011.2 |
| 20260507113015 | 11 | 129 | 0.0 | 0.0 | 0.00 | 2.67 | 0.20 | 95 | 1011.5 |
| 20260507111514 | 11 | 153 | 0.0 | 0.0 | 0.00 | 2.67 | 0.20 | 95 | 1010.9 |
| 20260507110012 | 11 | 191 | 1.6 | 6.4 | 0.00 | 2.67 | 0.20 | 96 | 1010.5 |
| 20260507104511 | 11 | 166 | 0.0 | 0.0 | 0.03 | 2.67 | 0.20 | 96 | 1010.9 |
| 20260507103010 | 11 | 163 | 0.0 | 0.0 | 0.03 | 2.67 | 0.20 | 96 | 1010.9 |
| 20260507101509 | 11 | 200 | 0.0 | 8.0 | 0.03 | 2.67 | 0.20 | 96 | 1010.9 |